{"data":{"norad_id":69604,"intl_designator":"2026-140N","name":"KUIPER-00532","alt_names":[],"object_type":"PAYLOAD","status":"ACTIVE","operator":null,"country":"US","launch_date":"2026-06-17","launch_site_code":"FRGUI","launch_vehicle":null,"mission":null,"orbit_class":"UNKNOWN","rcs_meters":null,"size_class":null,"mass_kg":null,"dimensions":null,"purposes":[],"wikipedia_slug":null,"has_3d_model":false,"image_url":null,"decayed_at":null,"tle_current":{"epoch":"2026-09-20T04:00:03.000096Z","epoch_age_seconds":57730,"freshness":"FRESH","line1":"1 69604U 26140N   26263.16670139 -.00040893  00000+0 -37810-2 0  9996","line2":"2 69604  51.8958 303.5959 0004184 237.2638  13.2759 14.94139205  5162","mean_motion":14.94139205,"eccentricity":0.0004184,"inclination_deg":51.8958,"raan_deg":303.5959,"arg_perigee_deg":237.2638,"mean_anomaly_deg":13.2759,"bstar":-0.003781,"rev_number":516,"period_min":96.376562182504,"perigee_km":582.13246499312,"apogee_km":587.95925641096,"semimajor_km":6963.182860702,"source":"CELESTRAK","updated_at":"2026-09-20T09:00:25.001744Z"}}}